Spokane Felts, WA

8:48 PM PST on January 23, 2018 (GMT -0800)
Felts

Weather History for KSFF - June, 2013

Change the Weather History Date:

Saturday, June 8, 2013

  Actual Average Record
Temperature  
Mean Temperature 66 °F 61 °F  
Max Temperature 81 °F 72 °F 97 °F (2015)
Min Temperature 50 °F 49 °F 42 °F (2002)
Degree Days  
Heating Degree Days 0 5  
Month to date heating degree days 24 47  
Since 1 June heating degree days 24 47  
Since 1 July heating degree days 5578 6222  
Cooling Degree Days 1 1  
Month to date cooling degree days 16 8  
Year to date cooling degree days 42 15  
Since 1 June cooling degree days 16 8  
Growing Degree Days 16 (Base 50)    
Moisture  
Dew Point 37 °F    
Average Humidity 40    
Maximum Humidity 63    
Minimum Humidity 16    
Precipitation  
Precipitation 0.00 in 0.05 in 0.32 in (2006)
Month to date precipitation 0.77 0.48  
Year to date precipitation 5.93 8.33  
Sea Level Pressure  
Sea Level Pressure 29.95 in    
Wind  
Wind Speed 7 mph (SW)    
Max Wind Speed 18 mph    
Max Gust Speed 30 mph    
Visibility 10 miles    
Events      
T = Trace of Precipitation, MM = Missing Value Source: NWS Daily Summary

Daily Weather History Graph

Daily Weather History Graph

Search for Another Location

Airport or City:

Trip Planner

Search our weather history database for the weather conditions in past years. The results will help you decide how hot, cold, wet, or windy it might be!

Date:

Astronomy

Jun. 08, 2013 Rise Set
Actual Time 4:51 AM PDT 8:45 PM PDT
Civil Twilight 4:11 AM PDT 9:25 PM PDT
Nautical Twilight 3:16 AM PDT 10:21 PM PDT
Astronomical Twilight 1:52 AM PDT 11:46 PM PDT
Moon 5:07 AM PDT (6/8) 8:46 PM PDT (6/8)
Length of Visible Light 17h 14m
Length of Day
15h 53m
New Moon, 0% of the Moon is Illuminated
Jun 8
New Moon
Jun 16
First Quarter
Jun 23
Full
Jun 29
Last Quarter
Jul 8
New

Hourly Weather History & Observations

Time (PDT) Temp. Dew Point Humidity Pressure Visibility Wind Dir Wind Speed Gust Speed Precip Events Conditions
12:53 AM 60.1 °F 39.9 °F 47% 29.89 in 10.0 mi WSW 8.1 mph - N/A   Clear
1:53 AM 57.9 °F 36.0 °F 44% 29.91 in 10.0 mi WSW 4.6 mph - N/A   Clear
2:53 AM 55.0 °F 37.0 °F 51% 29.93 in 10.0 mi SW 4.6 mph - N/A   Clear
3:53 AM 54.0 °F 36.0 °F 51% 29.95 in 10.0 mi SW 8.1 mph - N/A   Clear
4:53 AM 53.1 °F 37.0 °F 55% 29.98 in 10.0 mi SW 8.1 mph - N/A   Clear
5:53 AM 52.0 °F 39.0 °F 61% 29.99 in 10.0 mi Calm Calm - N/A   Clear
6:53 AM 55.0 °F 39.0 °F 55% 30.01 in 10.0 mi East 3.5 mph - N/A   Clear
7:53 AM 59.0 °F 37.9 °F 46% 30.02 in 10.0 mi SE 4.6 mph - N/A   Clear
8:53 AM 61.0 °F 36.0 °F 39% 30.02 in 10.0 mi West 4.6 mph - N/A   Clear
9:53 AM 66.0 °F 35.1 °F 32% 30.01 in 10.0 mi SW 8.1 mph - N/A   Clear
10:53 AM 68.0 °F 37.0 °F 32% 30.01 in 10.0 mi WSW 9.2 mph - N/A   Clear
11:53 AM 72.0 °F 37.9 °F 29% 30.00 in 10.0 mi WSW 11.5 mph 16.1 mph N/A   Clear
12:53 PM 73.9 °F 34.0 °F 23% 29.99 in 10.0 mi West 9.2 mph - N/A   Clear
1:53 PM 75.9 °F 35.1 °F 23% 29.97 in 10.0 mi NW 3.5 mph 17.3 mph N/A   Clear
2:53 PM 79.0 °F 28.9 °F 16% 29.95 in 10.0 mi WSW 12.7 mph 24.2 mph N/A   Clear
3:53 PM 79.0 °F 32.0 °F 18% 29.94 in 10.0 mi SSW 19.6 mph 24.2 mph N/A   Clear
4:53 PM 80.1 °F 33.1 °F 18% 29.92 in 10.0 mi Variable 4.6 mph - N/A   Clear
5:53 PM 80.1 °F 30.9 °F 17% 29.91 in 10.0 mi SW 13.8 mph 19.6 mph N/A   Clear
6:53 PM 78.1 °F 36.0 °F 22% 29.90 in 10.0 mi West 6.9 mph 18.4 mph N/A   Clear
7:53 PM 77.0 °F 37.0 °F 24% 29.88 in 10.0 mi SW 11.5 mph - N/A   Clear
8:53 PM 73.9 °F 37.0 °F 26% 29.87 in 10.0 mi SW 9.2 mph - N/A   Clear
9:53 PM 66.9 °F 41.0 °F 39% 29.88 in 10.0 mi NE 4.6 mph - N/A   Clear
10:53 PM 64.0 °F 41.0 °F 43% 29.88 in 10.0 mi SSW 5.8 mph - N/A   Clear
11:53 PM 63.0 °F 44.1 °F 50% 29.88 in 10.0 mi Calm Calm - N/A   Clear